QPF
0.01 0.01 0.00 0.01 0.00 0.01 0.01 0.01 0.01 0.00 0.00 0.00 0.00 0.00 0.01 0.00 0.00 0.02 0.04 0.02 0.02 0.01 0.01 0.01 0.01 0.01 0.00 0.00 0.00 0.00 0.00 0.00 0.00 0.00 0.00 0.00 0.00 0.01 0.01 0.01 0.01 0.00 0.01
0.02 0.02 0.02 0.03 0.03 0.03 0.04 0.03 0.02 0.02 0.01 0.00 0.00 0.00 0.01 0.01 0.01 0.02 0.03 0.02 0.02 0.02 0.02 0.02 0.02 0.01 0.01 0.01 0.01 0.01 0.01 0.01 0.00 0.01 0.01 0.00 0.01 0.00 0.01 0.01 0.01 0.01 0.01
0.04 0.03 0.04 0.05 0.05 0.05 0.05 0.04 0.04 0.03 0.02 0.02 0.01 0.01 0.01 0.01 0.02 0.03 0.05 0.06 0.04 0.03 0.03 0.03 0.03 0.02 0.02 0.01 0.01 0.01 0.01 0.01 0.01 0.01 0.01 0.01 0.01 0.01 0.01 0.01 0.01 0.01 0.00
0.05 0.06 0.06 0.07 0.07 0.08 0.09 0.09 0.08 0.07 0.06 0.05 0.05 0.04 0.03 0.03 0.04 0.07 0.11 0.12 0.11 0.10 0.06 0.03 0.03 0.02 0.01 0.02 0.02 0.02 0.01 0.01 0.01 0.01 0.01 0.01 0.01 0.01 0.01 0.01 0.00 0.00 0.00
0.06 0.07 0.08 0.09 0.09 0.11 0.13 0.10 0.12 0.13 0.15 0.14 0.12 0.09 0.06 0.07 0.07 0.07 0.08 0.08 0.09 0.10 0.09 0.06 0.03 0.02 0.01 0.01 0.01 0.01 0.01 0.01 0.01 0.01 0.01 0.01 0.01 0.01 0.01 0.00 0.00 0.00 0.00
0.08 0.10 0.10 0.11 0.13 0.16 0.17 0.16 0.16 0.15 0.17 0.18 0.12 0.12 0.10 0.10 0.10 0.10 0.08 0.07 0.06 0.05 0.06 0.06 0.04 0.02 0.02 0.01 0.01 0.01 0.01 0.01 0.01 0.01 0.01 0.02 0.02 0.02 0.01 0.01 0.00 0.00 0.00
0.12 0.14 0.17 0.19 0.21 0.19 0.18 0.17 0.18 0.20 0.22 0.23 0.22 0.18 0.13 0.10 0.09 0.09 0.08 0.09 0.08 0.06 0.04 0.05 0.04 0.03 0.02 0.02 0.01 0.01 0.01 0.01 0.02 0.02 0.02 0.03 0.02 0.02 0.01 0.01 0.01 0.00 0.00
0.15 0.17 0.19 0.21 0.22 0.20 0.18 0.20 0.23 0.26 0.26 0.26 0.27 0.27 0.20 0.12 0.08 0.06 0.05 0.06 0.06 0.06 0.05 0.04 0.04 0.03 0.03 0.03 0.02 0.01 0.01 0.01 0.01 0.01 0.01 0.01 0.01 0.01 0.01 0.01 0.01 0.01 0.01
0.18 0.19 0.21 0.22 0.21 0.20 0.20 0.23 0.26 0.29 0.30 0.30 0.28 0.29 0.28 0.26 0.17 0.09 0.05 0.03 0.03 0.03 0.04 0.03 0.03 0.03 0.03 0.02 0.01 0.01 0.00 0.00 0.00 0.00 0.00 0.00 0.00 0.00 0.01 0.01 0.01 0.01 0.01
0.23 0.23 0.22 0.20 0.18 0.21 0.25 0.28 0.29 0.31 0.33 0.30 0.24 0.21 0.20 0.20 0.18 0.11 0.06 0.03 0.02 0.02 0.02 0.02 0.02 0.02 0.01 0.01 0.01 0.00 0.00 0.00 0.00 0.00 0.00 0.00 0.00 0.00 0.00 0.00 0.01 0.01 0.02
0.31 0.27 0.24 0.22 0.20 0.18 0.18 0.19 0.24 0.26 0.23 0.18 0.16 0.13 0.10 0.08 0.08 0.07 0.06 0.03 0.02 0.01 0.01 0.01 0.01 0.01 0.01 0.00 0.00 0.00 0.00 0.00 0.00 0.00 0.00 0.00 0.00 0.00 0.00 0.00 0.00 0.00 0.01
0.30 0.27 0.24 0.21 0.18 0.15 0.13 0.12 0.13 0.12 0.11 0.10 0.10 0.08 0.06 0.05 0.05 0.06 0.06 0.04 0.02 0.01 0.01 0.01 0.01 0.01 0.01 0.00 0.00 0.00 0.00 0.00 0.00 0.00 0.00 0.00 0.00 0.00 0.00 0.00 0.00 0.00 0.00
0.37 0.30 0.24 0.21 0.17 0.13 0.10 0.08 0.07 0.07 0.07 0.07 0.07 0.07 0.06 0.04 0.04 0.04 0.04 0.03 0.02 0.02 0.01 0.01 0.01 0.01 0.00 0.00 0.00 0.00 0.00 0.00 0.00 0.00 0.00 0.00 0.00 0.00 0.00 0.00 0.00 0.00 0.00
0.33 0.27 0.21 0.14 0.09 0.07 0.06 0.05 0.05 0.05 0.05 0.05 0.05 0.05 0.04 0.04 0.03 0.03 0.03 0.03 0.03 0.02 0.02 0.02 0.01 0.01 0.01 0.01 0.00 0.00 0.00 0.00 0.00 0.00 0.00 0.00 0.00 0.00 0.00 0.00 0.00 0.00 0.00
0.21 0.15 0.10 0.08 0.07 0.06 0.05 0.05 0.05 0.05 0.04 0.04 0.04 0.04 0.04 0.03 0.03 0.03 0.03 0.03 0.04 0.04 0.04 0.03 0.02 0.02 0.01 0.01 0.00 0.00 0.00 0.00 0.00 0.00 0.00 0.00 0.00 0.00 0.00 0.00 0.00 0.00 0.00
0.11 0.09 0.08 0.07 0.07 0.06 0.06 0.06 0.05 0.04 0.04 0.04 0.04 0.04 0.04 0.04 0.04 0.04 0.04 0.04 0.04 0.04 0.04 0.03 0.02 0.01 0.00 0.00 0.00 0.00 0.00 0.00 0.00 0.00 0.00 0.00 0.00 0.00 0.00 0.00 0.00 0.00 0.00
0.08 0.07 0.07 0.07 0.08 0.08 0.07 0.07 0.07 0.07 0.07 0.08 0.08 0.08 0.08 0.07 0.05 0.05 0.05 0.05 0.04 0.04 0.04 0.02 0.01 0.01 0.00 0.00 0.00 0.00 0.00 0.00 0.00 0.00 0.00 0.00 0.00 0.00 0.00 0.00 0.00 0.00 0.00
0.07 0.07 0.06 0.07 0.08 0.09 0.10 0.10 0.10 0.09 0.09 0.10 0.10 0.09 0.08 0.06 0.06 0.05 0.05 0.04 0.04 0.03 0.03 0.02 0.02 0.01 0.01 0.00 0.00 0.00 0.00 0.00 0.00 0.00 0.00 0.00 0.00 0.00 0.00 0.00 0.00 0.00 0.00
0.06 0.06 0.06 0.07 0.08 0.09 0.10 0.10 0.10 0.09 0.09 0.08 0.07 0.07 0.06 0.05 0.05 0.04 0.03 0.03 0.02 0.02 0.01 0.01 0.01 0.01 0.00 0.00 0.01 0.01 0.01 0.02 0.00 0.00 0.00 0.00 0.00 0.00 0.00 0.00 0.00 0.00 0.00
0.05 0.06 0.07 0.08 0.08 0.08 0.08 0.07 0.06 0.06 0.05 0.04 0.03 0.03 0.02 0.02 0.02 0.02 0.02 0.02 0.01 0.01 0.01 0.01 0.01 0.01 0.01 0.01 0.02 0.03 0.02 0.02 0.02 0.01 0.01 0.00 0.00 0.00 0.01 0.00 0.00 0.00 0.00
0.04 0.04 0.04 0.04 0.03 0.03 0.02 0.02 0.01 0.01 0.01 0.01 0.00 0.00 0.00 0.00 0.00 0.00 0.00 0.01 0.01 0.01 0.01 0.01 0.01 0.01 0.02 0.04 0.04 0.04 0.02 0.02 0.02 0.02 0.02 0.01 0.02 0.02 0.02 0.02 0.01 0.00 0.00
0.03 0.02 0.02 0.02 0.01 0.01 0.00 0.00 0.00 0.00 0.00 0.01 0.00 0.00 0.00 0.00 0.00 0.00 0.00 0.00 0.00 0.00 0.00 0.01 0.01 0.02 0.04 0.05 0.06 0.03 0.03 0.03 0.02 0.02 0.02 0.02 0.03 0.03 0.02 0.02 0.01 0.00 0.00
0.02 0.01 0.01 0.01 0.00 0.00 0.00 0.00 0.00 0.00 0.01 0.01 0.01 0.01 0.01 0.00 0.01 0.01 0.00 0.00 0.01 0.01 0.00 0.00 0.01 0.03 0.05 0.06 0.05 0.03 0.03 0.03 0.03 0.03 0.04 0.03 0.04 0.03 0.02 0.01 0.00 0.00 0.00
0.01 0.01 0.01 0.01 0.01 0.00 0.00 0.00 0.00 0.00 0.01 0.01 0.01 0.01 0.01 0.01 0.01 0.00 0.00 0.01 0.03 0.05 0.04 0.02 0.02 0.03 0.03 0.03 0.02 0.01 0.01 0.02 0.04 0.06 0.06 0.03 0.03 0.03 0.01 0.02 0.01 0.00 0.00
0.02 0.02 0.02 0.02 0.03 0.02 0.00 0.00 0.00 0.00 0.01 0.01 0.01 0.01 0.01 0.01 0.00 0.00 0.00 0.02 0.06 0.08 0.04 0.01 0.01 0.01 0.00 0.00 0.00 0.00 0.01 0.04 0.05 0.07 0.07 0.03 0.03 0.02 0.01 0.01 0.01 0.00 0.00
0.02 0.02 0.02 0.03 0.04 0.03 0.00 0.00 0.00 0.00 0.01 0.01 0.03 0.05 0.02 0.00 0.00 0.00 0.00 0.02 0.05 0.06 0.05 0.05 0.05 0.05 0.04 0.03 0.02 0.01 0.02 0.05 0.07 0.07 0.07 0.04 0.04 0.03 0.02 0.01 0.02 0.03 0.03
MSLP
1015.89 1016.16 1016.39 1016.59 1016.78 1016.97 1017.15 1017.31 1017.43 1017.47 1017.42 1017.30 1017.14 1016.97 1016.86 1016.86 1017.00 1017.30 1017.76 1018.32 1018.94 1019.55 1020.12 1020.60 1020.96 1021.24 1021.43 1021.58 1021.71 1021.85 1022.02 1022.21 1022.43 1022.67 1022.90 1023.11 1023.31 1023.47 1023.61 1023.72 1023.80 1023.87 1023.93
1015.57 1015.89 1016.17 1016.41 1016.64 1016.86 1017.06 1017.23 1017.36 1017.43 1017.43 1017.35 1017.24 1017.11 1017.01 1017.00 1017.11 1017.35 1017.73 1018.21 1018.77 1019.34 1019.89 1020.38 1020.79 1021.10 1021.34 1021.53 1021.68 1021.83 1022.00 1022.19 1022.40 1022.64 1022.89 1023.14 1023.37 1023.57 1023.74 1023.87 1023.96 1024.03 1024.08
1015.32 1015.70 1016.04 1016.34 1016.62 1016.87 1017.11 1017.31 1017.48 1017.59 1017.64 1017.63 1017.57 1017.49 1017.42 1017.40 1017.45 1017.61 1017.88 1018.25 1018.70 1019.19 1019.69 1020.16 1020.57 1020.92 1021.20 1021.43 1021.61 1021.78 1021.95 1022.14 1022.35 1022.59 1022.85 1023.12 1023.37 1023.60 1023.79 1023.94 1024.04 1024.11 1024.15
1015.12 1015.54 1015.94 1016.31 1016.64 1016.94 1017.21 1017.46 1017.66 1017.83 1017.94 1018.01 1018.02 1018.00 1017.96 1017.94 1017.95 1018.02 1018.17 1018.41 1018.72 1019.09 1019.51 1019.93 1020.33 1020.70 1021.02 1021.28 1021.51 1021.71 1021.89 1022.08 1022.29 1022.53 1022.79 1023.05 1023.31 1023.55 1023.75 1023.91 1024.01 1024.08 1024.11
1014.92 1015.38 1015.83 1016.25 1016.62 1016.96 1017.26 1017.53 1017.78 1017.99 1018.17 1018.31 1018.40 1018.46 1018.47 1018.46 1018.45 1018.45 1018.49 1018.60 1018.77 1019.02 1019.33 1019.68 1020.06 1020.44 1020.79 1021.11 1021.38 1021.62 1021.83 1022.04 1022.24 1022.47 1022.71 1022.96 1023.21 1023.43 1023.63 1023.77 1023.87 1023.92 1023.93
1014.71 1015.20 1015.68 1016.12 1016.52 1016.87 1017.18 1017.46 1017.72 1017.96 1018.19 1018.41 1018.59 1018.73 1018.82 1018.85 1018.84 1018.80 1018.76 1018.75 1018.80 1018.92 1019.13 1019.42 1019.76 1020.14 1020.53 1020.90 1021.23 1021.52 1021.78 1022.01 1022.23 1022.44 1022.65 1022.87 1023.09 1023.28 1023.44 1023.56 1023.63 1023.66 1023.65
1014.52 1015.02 1015.51 1015.96 1016.35 1016.68 1016.96 1017.21 1017.46 1017.71 1017.98 1018.26 1018.52 1018.76 1018.93 1019.03 1019.05 1019.00 1018.91 1018.82 1018.77 1018.79 1018.90 1019.12 1019.44 1019.82 1020.24 1020.67 1021.07 1021.43 1021.75 1022.01 1022.24 1022.45 1022.64 1022.82 1022.98 1023.13 1023.24 1023.32 1023.35 1023.34 1023.30
1014.39 1014.90 1015.39 1015.82 1016.17 1016.45 1016.68 1016.88 1017.08 1017.31 1017.60 1017.92 1018.26 1018.58 1018.84 1019.02 1019.09 1019.06 1018.96 1018.82 1018.69 1018.62 1018.66 1018.82 1019.10 1019.48 1019.94 1020.42 1020.90 1021.34 1021.72 1022.04 1022.29 1022.50 1022.67 1022.81 1022.92 1023.01 1023.06 1023.08 1023.07 1023.01 1022.93
1014.44 1014.95 1015.42 1015.81 1016.11 1016.32 1016.46 1016.58 1016.72 1016.92 1017.19 1017.53 1017.92 1018.32 1018.66 1018.92 1019.06 1019.06 1018.96 1018.79 1018.61 1018.48 1018.44 1018.54 1018.79 1019.17 1019.65 1020.18 1020.72 1021.24 1021.68 1022.06 1022.35 1022.57 1022.72 1022.83 1022.90 1022.93 1022.93 1022.90 1022.83 1022.73 1022.60
1014.74 1015.25 1015.69 1016.04 1016.27 1016.40 1016.46 1016.50 1016.57 1016.71 1016.95 1017.29 1017.71 1018.15 1018.56 1018.88 1019.07 1019.11 1019.02 1018.83 1018.61 1018.42 1018.32 1018.36 1018.56 1018.92 1019.40 1019.96 1020.55 1021.12 1021.63 1022.05 1022.38 1022.61 1022.77 1022.86 1022.89 1022.88 1022.84 1022.76 1022.64 1022.50 1022.33
1015.33 1015.84 1016.26 1016.56 1016.74 1016.80 1016.79 1016.75 1016.74 1016.82 1017.03 1017.35 1017.77 1018.23 1018.68 1019.03 1019.26 1019.32 1019.23 1019.02 1018.76 1018.51 1018.35 1018.32 1018.47 1018.78 1019.23 1019.79 1020.39 1020.98 1021.52 1021.98 1022.33 1022.59 1022.75 1022.83 1022.84 1022.81 1022.73 1022.62 1022.48 1022.31 1022.11
1016.21 1016.72 1017.12 1017.39 1017.52 1017.53 1017.46 1017.36 1017.30 1017.33 1017.49 1017.79 1018.18 1018.64 1019.08 1019.44 1019.67 1019.74 1019.64 1019.41 1019.11 1018.81 1018.58 1018.48 1018.54 1018.78 1019.17 1019.68 1020.25 1020.83 1021.37 1021.83 1022.19 1022.45 1022.61 1022.69 1022.70 1022.66 1022.57 1022.45 1022.29 1022.11 1021.89
1017.32 1017.82 1018.20 1018.45 1018.55 1018.53 1018.42 1018.29 1018.20 1018.20 1018.32 1018.57 1018.93 1019.35 1019.76 1020.10 1020.32 1020.36 1020.24 1019.99 1019.65 1019.31 1019.01 1018.83 1018.81 1018.95 1019.25 1019.67 1020.17 1020.68 1021.17 1021.60 1021.94 1022.18 1022.33 1022.40 1022.41 1022.37 1022.29 1022.18 1022.03 1021.85 1021.64
1018.56 1019.04 1019.40 1019.63 1019.71 1019.68 1019.57 1019.43 1019.33 1019.30 1019.39 1019.60 1019.90 1020.27 1020.63 1020.92 1021.09 1021.11 1020.97 1020.70 1020.34 1019.96 1019.61 1019.36 1019.24 1019.28 1019.46 1019.76 1020.14 1020.55 1020.95 1021.30 1021.58 1021.78 1021.90 1021.96 1021.97 1021.93 1021.86 1021.76 1021.64 1021.48 1021.28
1019.81 1020.26 1020.59 1020.80 1020.88 1020.85 1020.75 1020.62 1020.51 1020.47 1020.53 1020.69 1020.93 1021.22 1021.51 1021.75 1021.88 1021.86 1021.71 1021.44 1021.07 1020.68 1020.30 1020.00 1019.80 1019.73 1019.79 1019.96 1020.19 1020.46 1020.72 1020.96 1021.15 1021.27 1021.35 1021.38 1021.37 1021.33 1021.28 1021.20 1021.10 1020.97 1020.80
1020.98 1021.37 1021.67 1021.85 1021.93 1021.91 1021.82 1021.71 1021.61 1021.55 1021.58 1021.68 1021.85 1022.06 1022.27 1022.44 1022.52 1022.49 1022.34 1022.08 1021.74 1021.36 1020.99 1020.66 1020.41 1020.26 1020.20 1020.22 1020.29 1020.40 1020.52 1020.62 1020.68 1020.72 1020.72 1020.70 1020.66 1020.62 1020.57 1020.51 1020.44 1020.34 1020.20
1021.98 1022.31 1022.56 1022.71 1022.78 1022.76 1022.69 1022.58 1022.48 1022.41 1022.39 1022.43 1022.53 1022.65 1022.78 1022.88 1022.92 1022.88 1022.74 1022.52 1022.23 1021.91 1021.57 1021.25 1020.98 1020.76 1020.61 1020.50 1020.43 1020.39 1020.35 1020.30 1020.24 1020.16 1020.08 1020.00 1019.92 1019.85 1019.80 1019.74 1019.68 1019.61 1019.50
1022.77 1023.03 1023.23 1023.35 1023.40 1023.38 1023.31 1023.21 1023.10 1023.00 1022.93 1022.91 1022.92 1022.95 1023.00 1023.04 1023.04 1022.99 1022.89 1022.72 1022.51 1022.25 1021.98 1021.70 1021.43 1021.19 1020.96 1020.75 1020.56 1020.38 1020.20 1020.01 1019.83 1019.65 1019.48 1019.33 1019.21 1019.10 1019.03 1018.96 1018.91 1018.84 1018.76
1023.36 1023.55 1023.69 1023.77 1023.80 1023.78 1023.70 1023.60 1023.47 1023.34 1023.22 1023.12 1023.05 1023.00 1022.97 1022.95 1022.92 1022.87 1022.80 1022.70 1022.56 1022.38 1022.18 1021.96 1021.72 1021.46 1021.19 1020.92 1020.63 1020.34 1020.05 1019.76 1019.48 1019.21 1018.97 1018.76 1018.58 1018.43 1018.32 1018.24 1018.17 1018.10 1018.01
1023.73 1023.87 1023.96 1024.02 1024.03 1023.99 1023.91 1023.79 1023.65 1023.49 1023.32 1023.16 1023.01 1022.88 1022.78 1022.71 1022.64 1022.60 1022.55 1022.49 1022.42 1022.32 1022.19 1022.02 1021.80 1021.56 1021.27 1020.95 1020.61 1020.25 1019.89 1019.52 1019.17 1018.85 1018.55 1018.29 1018.07 1017.88 1017.73 1017.61 1017.52 1017.42 1017.32
1023.93 1024.02 1024.08 1024.11 1024.11 1024.07 1023.99 1023.87 1023.72 1023.53 1023.33 1023.11 1022.91 1022.72 1022.56 1022.43 1022.33 1022.27 1022.23 1022.20 1022.17 1022.12 1022.03 1021.90 1021.71 1021.47 1021.18 1020.84 1020.47 1020.08 1019.68 1019.28 1018.90 1018.55 1018.22 1017.93 1017.68 1017.46 1017.27 1017.11 1016.97 1016.84 1016.71
1023.97 1024.03 1024.07 1024.10 1024.10 1024.07 1024.00 1023.89 1023.74 1023.55 1023.33 1023.08 1022.84 1022.60 1022.39 1022.22 1022.09 1022.00 1021.95 1021.92 1021.89 1021.85 1021.77 1021.65 1021.47 1021.22 1020.93 1020.58 1020.21 1019.81 1019.41 1019.01 1018.64 1018.29 1017.96 1017.67 1017.40 1017.16 1016.94 1016.73 1016.55 1016.37 1016.19
1023.91 1023.95 1023.99 1024.02 1024.04 1024.03 1023.99 1023.90 1023.78 1023.60 1023.38 1023.13 1022.87 1022.60 1022.36 1022.15 1021.98 1021.85 1021.77 1021.70 1021.65 1021.58 1021.48 1021.33 1021.12 1020.87 1020.56 1020.21 1019.84 1019.46 1019.08 1018.71 1018.37 1018.05 1017.75 1017.47 1017.21 1016.95 1016.70 1016.46 1016.23 1015.99 1015.76
1023.80 1023.84 1023.88 1023.93 1023.97 1024.00 1023.99 1023.95 1023.86 1023.71 1023.51 1023.28 1023.01 1022.74 1022.47 1022.23 1022.02 1021.85 1021.71 1021.59 1021.47 1021.34 1021.18 1020.98 1020.74 1020.44 1020.12 1019.76 1019.40 1019.04 1018.70 1018.38 1018.09 1017.82 1017.56 1017.31 1017.06 1016.81 1016.55 1016.27 1016.00 1015.72 1015.44
1023.71 1023.75 1023.81 1023.88 1023.95 1024.02 1024.05 1024.05 1024.00 1023.89 1023.72 1023.50 1023.25 1022.97 1022.69 1022.42 1022.17 1021.95 1021.74 1021.55 1021.36 1021.15 1020.92 1020.65 1020.34 1020.00 1019.64 1019.28 1018.92 1018.59 1018.29 1018.02 1017.79 1017.58 1017.37 1017.17 1016.94 1016.70 1016.43 1016.14 1015.84 1015.52 1015.20
1023.72 1023.77 1023.84 1023.93 1024.03 1024.12 1024.19 1024.22 1024.20 1024.12 1023.97 1023.77 1023.52 1023.24 1022.95 1022.65 1022.36 1022.08 1021.82 1021.55 1021.28 1020.99 1020.67 1020.33 1019.96 1019.57 1019.17 1018.80 1018.45 1018.14 1017.88 1017.66 1017.48 1017.33 1017.18 1017.02 1016.83 1016.61 1016.35 1016.05 1015.73 1015.39 1015.04
Thickness
5751 5751 5749 5747 5746 5744 5742 5740 5740 5740 5738 5737 5735 5734 5733 5732 5729 5726 5719 5715 5713 5709 5705 5701 5698 5696 5693 5690 5688 5685 5682 5680 5678 5676 5674 5672 5670 5668 5667 5665 5664 5663 5661
5751 5750 5748 5746 5744 5743 5741 5740 5739 5737 5736 5734 5733 5732 5730 5729 5726 5723 5718 5714 5711 5708 5704 5700 5696 5693 5690 5687 5684 5682 5679 5677 5674 5671 5669 5667 5665 5663 5662 5660 5658 5657 5656
5750 5748 5746 5743 5741 5740 5738 5736 5735 5733 5732 5731 5730 5728 5727 5724 5722 5719 5715 5710 5707 5704 5701 5698 5694 5691 5688 5685 5682 5679 5676 5673 5670 5667 5665 5663 5660 5658 5656 5655 5653 5651 5650
5749 5746 5743 5741 5739 5736 5734 5731 5730 5727 5725 5724 5724 5723 5722 5719 5717 5713 5711 5707 5704 5701 5696 5694 5690 5687 5684 5681 5678 5675 5671 5668 5665 5662 5660 5657 5655 5653 5650 5648 5646 5645 5643
5746 5743 5740 5738 5736 5733 5730 5727 5726 5722 5718 5716 5716 5716 5715 5712 5709 5708 5705 5703 5701 5697 5692 5688 5686 5683 5680 5677 5674 5670 5667 5663 5660 5657 5654 5651 5649 5647 5644 5642 5640 5638 5636
5743 5740 5737 5735 5733 5729 5725 5722 5719 5717 5713 5710 5709 5707 5706 5704 5701 5700 5698 5696 5695 5692 5688 5684 5680 5677 5674 5671 5667 5664 5660 5657 5653 5650 5646 5644 5642 5639 5637 5635 5632 5631 5629
5739 5736 5734 5732 5729 5724 5721 5717 5714 5710 5706 5704 5698 5694 5694 5694 5693 5692 5691 5689 5687 5685 5682 5678 5674 5671 5667 5663 5659 5656 5652 5648 5645 5641 5638 5635 5633 5630 5628 5626 5624 5622 5620
5735 5732 5729 5727 5724 5719 5716 5712 5708 5704 5700 5696 5691 5685 5679 5680 5682 5684 5683 5681 5680 5677 5675 5671 5668 5664 5660 5655 5651 5647 5643 5639 5634 5631 5628 5625 5622 5620 5617 5615 5614 5611 5610
5729 5725 5723 5721 5718 5715 5710 5706 5704 5700 5693 5690 5689 5683 5675 5673 5674 5673 5674 5673 5671 5669 5667 5664 5661 5656 5652 5646 5642 5638 5633 5628 5624 5620 5617 5614 5611 5609 5606 5604 5602 5600 5598
5721 5719 5715 5712 5711 5709 5702 5698 5697 5695 5691 5686 5683 5682 5677 5675 5668 5663 5663 5664 5662 5660 5657 5655 5652 5647 5643 5637 5632 5627 5622 5617 5612 5608 5605 5602 5599 5597 5595 5592 5590 5588 5586
5711 5709 5705 5701 5699 5697 5695 5692 5689 5687 5685 5681 5677 5673 5669 5666 5664 5659 5654 5652 5651 5650 5648 5645 5641 5636 5633 5627 5621 5616 5611 5605 5600 5596 5592 5589 5586 5584 5581 5579 5577 5575 5573
5696 5695 5693 5688 5686 5684 5683 5681 5678 5675 5673 5671 5668 5664 5660 5657 5654 5651 5647 5642 5640 5639 5637 5633 5629 5624 5620 5615 5610 5604 5599 5593 5588 5584 5580 5576 5573 5570 5568 5565 5563 5561 5559
5681 5680 5678 5675 5672 5670 5668 5667 5664 5660 5658 5655 5653 5649 5646 5643 5643 5640 5636 5632 5629 5626 5624 5621 5617 5613 5608 5603 5597 5591 5586 5582 5576 5571 5567 5563 5560 5557 5553 5550 5548 5545 5543
5667 5665 5663 5660 5657 5655 5653 5650 5648 5645 5642 5639 5637 5634 5630 5628 5627 5625 5622 5618 5615 5612 5609 5606 5604 5600 5595 5589 5584 5578 5574 5569 5564 5559 5554 5550 5546 5542 5538 5535 5532 5529 5526
5650 5649 5647 5644 5641 5639 5636 5634 5630 5628 5625 5622 5619 5616 5615 5612 5610 5608 5605 5602 5598 5593 5591 5589 5587 5584 5580 5575 5570 5564 5560 5556 5551 5546 5542 5537 5532 5528 5524 5520 5517 5513 5511
5635 5632 5629 5627 5624 5621 5618 5616 5612 5609 5607 5604 5601 5599 5597 5595 5593 5591 5588 5585 5582 5579 5574 5572 5570 5568 5564 5560 5555 5550 5545 5541 5538 5534 5529 5524 5519 5514 5510 5506 5503 5499 5496
5619 5616 5613 5610 5607 5604 5600 5597 5595 5591 5590 5587 5585 5583 5580 5579 5576 5574 5572 5570 5566 5563 5558 5555 5554 5551 5547 5544 5540 5535 5530 5527 5525 5521 5517 5512 5508 5503 5498 5494 5491 5487 5484
5603 5599 5597 5593 5590 5587 5584 5581 5579 5575 5573 5571 5569 5567 5564 5563 5559 5557 5554 5552 5549 5546 5542 5538 5536 5533 5531 5528 5525 5521 5517 5514 5512 5508 5505 5501 5497 5492 5488 5485 5481 5478 5474
5586 5583 5580 5576 5573 5570 5567 5565 5563 5560 5558 5556 5553 5551 5549 5546 5543 5540 5537 5535 5532 5530 5526 5523 5520 5517 5515 5514 5511 5508 5504 5501 5498 5496 5494 5491 5488 5483 5480 5477 5473 5470 5466
5569 5566 5563 5559 5556 5553 5551 5548 5547 5545 5544 5541 5539 5536 5534 5531 5527 5523 5521 5517 5514 5511 5509 5507 5505 5503 5502 5501 5498 5495 5492 5489 5487 5486 5484 5482 5480 5476 5473 5470 5467 5463 5459
5554 5551 5547 5544 5541 5538 5534 5531 5530 5531 5529 5527 5524 5522 5519 5515 5509 5506 5503 5499 5495 5493 5491 5491 5491 5490 5489 5486 5484 5483 5481 5479 5479 5479 5476 5473 5472 5469 5467 5464 5460 5457 5452
5542 5539 5535 5531 5527 5522 5517 5515 5513 5512 5512 5510 5508 5505 5503 5500 5494 5490 5487 5484 5480 5478 5477 5475 5475 5476 5476 5475 5473 5473 5471 5470 5469 5470 5468 5466 5466 5463 5461 5459 5455 5450 5445
5530 5527 5522 5518 5512 5506 5502 5500 5498 5496 5495 5494 5492 5489 5487 5486 5480 5476 5474 5472 5470 5469 5466 5465 5465 5465 5466 5466 5465 5463 5463 5462 5461 5463 5462 5461 5461 5458 5456 5453 5449 5443 5439
5519 5515 5511 5506 5500 5493 5488 5485 5483 5482 5483 5481 5479 5476 5472 5469 5465 5461 5460 5461 5461 5462 5463 5461 5461 5461 5462 5462 5459 5457 5457 5458 5460 5461 5458 5456 5456 5453 5452 5448 5444 5438 5434
5509 5505 5501 5495 5488 5480 5475 5472 5469 5469 5470 5468 5466 5463 5460 5457 5451 5449 5449 5451 5454 5456 5458 5458 5459 5459 5460 5459 5457 5453 5454 5455 5456 5457 5456 5453 5452 5450 5448 5445 5440 5435 5430
5500 5496 5491 5485 5478 5470 5463 5459 5455 5456 5455 5454 5453 5451 5448 5446 5443 5442 5442 5445 5447 5450 5452 5455 5457 5459 5460 5461 5460 5456 5455 5453 5453 5453 5454 5450 5448 5445 5442 5440 5436 5432 5427